Location: Tamazert
(32.6352°N, 5.2072°W)
Time: 04:49:55
(UTC+00:00)

Vanguard 2 Rocket - Pass Details

Date: 07 October 2022
Orbit: 555 x 3321 km, 32.9° (Epoch: 04 December)

Event Time Altitude Azimuth Distance (km) Brightness Sun altitude
Rises 04:41:51 0° 276° (W) 4,210 - -21.2°
Reaches altitude 10° 04:46:39 10° 254° (WSW) 2,699 - -20.2°
Maximum altitude 04:49:43 14° 224° (SW) 2,112 - -19.6°
Exits shadow 04:51:26 12° 202° (SSW) 2,080 8.5 -19.2°
Drops below altitude 10° 04:52:16 10° 192° (SSW) 2,157 8.7 -19.0°
Sets 04:55:22 0° 165° (SSE) 2,849 9.6 -18.4°
